Miscellaneous Local Product
Issued by NWS North Platte, NE

Home | Current Version | Previous Version | Text Only | Print | Product List | Glossary On
Versions: 1 2 3 4 5 6 7 8 9 10 11 12 13 14 15 16 17 18 19 20 21 22 23 24 25 26 27 28 29 30 31 32 33 34 35 36 37 38 39 40 41 42 43 44 45 46 47 48 49 50
000
AXUS43 KLBF 240110
MISLBF


WESTERN AND NORTH CENTRAL NEBRASKA HOURLY WEATHER ROUNDUP
NATIONAL WEATHER SERVICE NORTH PLATTE NE
800 PM CDT WED JUL 23 2014

***STATIONS NOT REPORTING VARIABLES SUCH AS SKY/WEATHER OR
PRESSURE ARE PROVIDED BY THE NEBRASKA DEPARTMENT OF
ROADS...RAWS...AND APRS NETWORKS...AND ARE NOT UNDER
NATIONAL WEATHER SERVICE QUALITY CONTROL***

...OBSERVATIONS IN AND NEAR THE EASTERN PANHANDLE OF NEBRASKA...

CITY           SKY/WX    TMP DP  RH WIND       PRES   REMARKS
PINE RIDGE     SUNNY     81  64  56 E13       30.08F
CHADRON        SUNNY     93  64  38 S18       30.05F HX  94
ALLIANCE       SUNNY     90  62  39 S13       30.12F HX  90
SIDNEY         MOSUNNY   91  61  36 S17G24    30.17S HX  91
WHITECLAY        N/A     87  62  43 SE7         N/A
RUSHVILLE        N/A     92  59  32 SE24        N/A  HX  91
GORDON           N/A     88  61  39 SE21        N/A
CRESCENT LAKE    N/A     84  61  45 SE9G16      N/A
LISCO            N/A     92  59  33 E9          N/A  HX  91
$$

...OBSERVATIONS IN NORTH CENTRAL NEBRASKA...

CITY           SKY/WX    TMP DP  RH WIND       PRES   REMARKS
VALENTINE      SUNNY     83  57  41 SE17      30.13F
THEDFORD       SUNNY     82  60  48 SE14      30.17S
AINSWORTH      SUNNY     80  56  43 SE12      30.16F
O`NEILL        CLEAR     79  56  46 E10       30.17S
ORD            CLEAR     78  60  53 E9        30.16S
BROKEN BOW     SUNNY     78  61  55 SE12G21   30.18S
BROWNLEE         N/A     84  54  34 SE14        N/A
SPRINGVIEW       N/A     79  61  54 E10         N/A
DUNNING          N/A     80  58  47 SE14        N/A
ROSE             N/A     83  63  50 E8          N/A
NEWPORT          N/A     77  62  60 E10         N/A
SARGENT          N/A     79  60  52 CALM        N/A
COMSTOCK         N/A     82  67  59 SE7         N/A
CHAMBERS         N/A     82  56  41 E5          N/A
$$

...OBSERVATIONS IN SOUTHWEST NEBRASKA AND FAR NORTHEAST COLORADO...

CITY           SKY/WX    TMP DP  RH WIND       PRES   REMARKS
WRAY             N/A     90  56  31 SE10      30.16R
HOLYOKE        FAIR      86  63  45 S9        30.16R
IMPERIAL       SUNNY     81  63  54 SE17      30.16R
OGALLALA       SUNNY     80  65  61 SE15G21   30.15R
NORTH PLATTE   SUNNY     78  63  59 SE16      30.16R
MCCOOK         SUNNY     79  65  62 E14       30.15S
LEXINGTON      SUNNY     79  62  55 SE13      30.17F
SUTHERLAND       N/A     83  70  64 SE10        N/A
BRADY            N/A     78  63  60 MISG        N/A
GOTHENBURG       N/A     80  60  49 SE8         N/A
CALLAWAY         N/A     83  67  58 SE12        N/A
$$

...NORTH PLATTE AREA...

CITY           SKY/WX    TMP DP  RH WIND       PRES   REMARKS
AIRPORT        SUNNY     78  63  59 SE16      30.16R
$$

...SOME WEATHER OBSERVATIONS FROM AROUND THE REGION...

CITY           SKY/WX    TMP DP  RH WIND       PRES   REMARKS
DENVER         CLOUDY    81  44  27 S24G38    30.25F
LARAMIE        PTSUNNY   77  42  28 MISG      30.36R
CHEYENNE       MOSUNNY   78  61  55 S16G25    30.27F
SCOTTSBLUFF    CLOUDY    89  67  47 SE8       30.11F HX  92
RAPID CITY     SUNNY     82  66  58 SE10      30.07F
PIERRE         MOSUNNY   81  52  36 E17       30.08F
WINNER         FAIR      83  54  36 SE14      30.12F
SIOUX FALLS    PTCLDY    75  56  51 NE10      30.17F
OMAHA          CLEAR     81  60  48 NE8       30.14S
GRAND ISLAND   CLEAR     78  61  55 E5        30.17S
KANSAS CITY    PTCLDY    81  64  56 NE9       30.11S
WICHITA        PTCLDY    85  67  54 E9        30.08S
HAYS           CLEAR     82  61  47 E12       30.13R
LIBERAL        SUNNY     90  66  45 E13       30.14R HX  92
GOODLAND       SUNNY     84  62  47 S8        30.18S
$$



USA.gov is the U.S. government's official web portal to all federal, state and local government web resources and services.